QPF
0.01 0.00 0.01 0.00 0.00 0.00 0.00 0.00 0.01 0.00 0.00 0.00 0.00 0.00 0.00 0.00 0.00 0.00 0.01 0.01 0.01 0.01 0.01 0.02 0.01 0.01 0.01 0.01 0.01 0.02 0.02 0.02 0.02 0.02 0.02 0.02 0.03 0.04 0.05 0.04 0.03 0.02 0.04
0.00 0.00 0.01 0.00 0.00 0.00 0.00 0.00 0.00 0.01 0.01 0.00 0.00 0.01 0.00 0.00 0.00 0.01 0.01 0.01 0.01 0.01 0.01 0.01 0.01 0.01 0.01 0.01 0.01 0.01 0.01 0.03 0.03 0.02 0.02 0.02 0.04 0.04 0.05 0.03 0.02 0.03 0.03
0.00 0.00 0.01 0.01 0.01 0.01 0.01 0.01 0.01 0.01 0.01 0.01 0.00 0.01 0.01 0.01 0.01 0.01 0.01 0.01 0.01 0.02 0.02 0.02 0.02 0.02 0.01 0.01 0.01 0.02 0.03 0.04 0.05 0.04 0.02 0.01 0.02 0.03 0.03 0.03 0.02 0.04 0.03
0.00 0.00 0.00 0.00 0.01 0.01 0.01 0.01 0.01 0.01 0.01 0.01 0.01 0.01 0.01 0.01 0.02 0.02 0.02 0.02 0.01 0.02 0.02 0.01 0.02 0.02 0.02 0.01 0.02 0.03 0.05 0.06 0.05 0.04 0.01 0.00 0.00 0.02 0.02 0.02 0.02 0.03 0.04
0.00 0.00 0.00 0.00 0.01 0.00 0.01 0.01 0.01 0.01 0.01 0.01 0.01 0.02 0.01 0.01 0.02 0.02 0.02 0.02 0.02 0.02 0.01 0.01 0.01 0.01 0.01 0.01 0.03 0.03 0.05 0.06 0.06 0.03 0.01 0.00 0.01 0.02 0.01 0.02 0.02 0.01 0.03
0.00 0.00 0.00 0.00 0.00 0.00 0.00 0.00 0.01 0.01 0.01 0.01 0.01 0.02 0.01 0.01 0.02 0.03 0.01 0.02 0.02 0.02 0.01 0.01 0.01 0.01 0.01 0.01 0.02 0.02 0.04 0.07 0.06 0.01 0.00 0.00 0.00 0.01 0.01 0.02 0.02 0.03 0.05
0.00 0.00 0.00 0.00 0.00 0.00 0.00 0.01 0.01 0.01 0.01 0.02 0.02 0.03 0.02 0.02 0.02 0.03 0.02 0.01 0.02 0.02 0.01 0.01 0.01 0.01 0.02 0.02 0.02 0.03 0.05 0.08 0.04 0.01 0.00 0.00 0.00 0.01 0.02 0.03 0.03 0.03 0.03
0.01 0.00 0.00 0.00 0.00 0.00 0.00 0.01 0.01 0.01 0.01 0.01 0.02 0.02 0.02 0.02 0.02 0.01 0.01 0.01 0.01 0.02 0.01 0.01 0.01 0.01 0.02 0.03 0.03 0.03 0.06 0.09 0.04 0.02 0.00 0.00 0.00 0.01 0.01 0.02 0.01 0.01 0.01
0.04 0.02 0.00 0.00 0.00 0.00 0.00 0.01 0.01 0.01 0.01 0.01 0.01 0.01 0.02 0.02 0.01 0.01 0.01 0.01 0.01 0.02 0.01 0.01 0.00 0.01 0.02 0.02 0.02 0.03 0.06 0.09 0.04 0.02 0.00 0.00 0.00 0.00 0.01 0.01 0.01 0.01 0.01
0.02 0.01 0.01 0.00 0.00 0.00 0.00 0.01 0.01 0.01 0.01 0.01 0.02 0.02 0.03 0.03 0.02 0.01 0.01 0.01 0.01 0.01 0.01 0.00 0.01 0.01 0.01 0.01 0.02 0.03 0.06 0.07 0.05 0.02 0.01 0.01 0.00 0.00 0.01 0.01 0.00 0.00 0.01
0.02 0.01 0.01 0.01 0.00 0.00 0.00 0.00 0.01 0.01 0.01 0.01 0.01 0.02 0.02 0.01 0.01 0.01 0.01 0.01 0.02 0.01 0.01 0.01 0.03 0.02 0.01 0.01 0.02 0.04 0.07 0.15 0.07 0.04 0.02 0.01 0.00 0.00 0.01 0.01 0.01 0.01 0.01
0.07 0.02 0.01 0.00 0.00 0.01 0.01 0.01 0.01 0.01 0.01 0.01 0.01 0.01 0.01 0.01 0.01 0.02 0.02 0.02 0.02 0.02 0.02 0.03 0.03 0.02 0.01 0.02 0.04 0.05 0.08 0.11 0.09 0.05 0.04 0.02 0.01 0.01 0.00 0.01 0.01 0.00 0.00
0.11 0.04 0.02 0.01 0.01 0.01 0.02 0.04 0.06 0.04 0.02 0.01 0.01 0.01 0.01 0.01 0.02 0.02 0.02 0.01 0.02 0.02 0.01 0.03 0.04 0.05 0.03 0.05 0.08 0.07 0.10 0.11 0.09 0.05 0.06 0.03 0.02 0.01 0.01 0.01 0.01 0.00 0.00
0.06 0.11 0.05 0.02 0.03 0.03 0.01 0.02 0.03 0.04 0.04 0.03 0.03 0.02 0.02 0.02 0.02 0.02 0.02 0.02 0.02 0.01 0.02 0.04 0.05 0.07 0.07 0.07 0.09 0.08 0.08 0.08 0.06 0.05 0.06 0.04 0.02 0.02 0.01 0.01 0.01 0.00 0.00
0.05 0.11 0.06 0.02 0.05 0.03 0.01 0.01 0.02 0.06 0.10 0.07 0.03 0.03 0.03 0.02 0.02 0.02 0.03 0.04 0.05 0.03 0.03 0.04 0.04 0.05 0.05 0.05 0.05 0.05 0.06 0.05 0.04 0.03 0.02 0.03 0.02 0.02 0.02 0.02 0.01 0.00 0.00
0.02 0.03 0.03 0.05 0.07 0.07 0.03 0.02 0.05 0.10 0.08 0.11 0.06 0.03 0.04 0.02 0.02 0.02 0.03 0.06 0.06 0.06 0.04 0.03 0.03 0.04 0.05 0.05 0.05 0.07 0.07 0.06 0.06 0.03 0.02 0.02 0.02 0.01 0.02 0.02 0.02 0.01 0.00
0.02 0.04 0.05 0.08 0.11 0.08 0.04 0.05 0.05 0.07 0.09 0.10 0.08 0.06 0.05 0.03 0.02 0.02 0.03 0.04 0.04 0.04 0.04 0.05 0.03 0.03 0.05 0.05 0.06 0.06 0.07 0.08 0.07 0.03 0.02 0.01 0.01 0.02 0.03 0.02 0.02 0.02 0.02
0.05 0.05 0.06 0.07 0.11 0.06 0.04 0.05 0.05 0.06 0.10 0.14 0.09 0.11 0.07 0.04 0.02 0.02 0.02 0.03 0.04 0.04 0.04 0.05 0.04 0.04 0.05 0.04 0.06 0.07 0.07 0.08 0.06 0.03 0.02 0.02 0.02 0.01 0.02 0.03 0.03 0.03 0.02
0.14 0.12 0.08 0.07 0.07 0.05 0.05 0.06 0.07 0.08 0.12 0.13 0.10 0.13 0.12 0.04 0.01 0.02 0.02 0.02 0.03 0.04 0.05 0.03 0.03 0.03 0.04 0.04 0.05 0.06 0.06 0.06 0.06 0.04 0.03 0.02 0.02 0.01 0.01 0.02 0.03 0.03 0.03
0.18 0.17 0.08 0.08 0.07 0.07 0.07 0.07 0.08 0.08 0.12 0.13 0.11 0.10 0.10 0.05 0.02 0.02 0.02 0.02 0.03 0.03 0.05 0.05 0.04 0.04 0.04 0.03 0.07 0.09 0.06 0.05 0.04 0.04 0.03 0.03 0.03 0.02 0.02 0.01 0.01 0.02 0.03
0.11 0.13 0.08 0.07 0.05 0.07 0.06 0.05 0.05 0.05 0.07 0.09 0.09 0.09 0.08 0.06 0.04 0.02 0.02 0.02 0.02 0.03 0.03 0.04 0.04 0.04 0.03 0.03 0.08 0.11 0.09 0.07 0.05 0.04 0.03 0.04 0.03 0.03 0.03 0.02 0.02 0.01 0.01
0.10 0.10 0.08 0.07 0.06 0.05 0.06 0.05 0.05 0.05 0.05 0.06 0.07 0.08 0.06 0.05 0.05 0.04 0.03 0.02 0.02 0.03 0.04 0.04 0.03 0.03 0.02 0.03 0.05 0.07 0.08 0.05 0.05 0.03 0.03 0.03 0.04 0.04 0.04 0.04 0.02 0.02 0.01
0.09 0.07 0.08 0.08 0.07 0.06 0.08 0.09 0.08 0.07 0.05 0.06 0.07 0.07 0.07 0.05 0.05 0.05 0.04 0.03 0.02 0.02 0.03 0.03 0.02 0.01 0.01 0.01 0.02 0.03 0.04 0.04 0.02 0.03 0.04 0.06 0.08 0.06 0.06 0.04 0.02 0.02 0.02
0.06 0.07 0.08 0.09 0.08 0.08 0.08 0.08 0.07 0.04 0.03 0.05 0.07 0.09 0.09 0.05 0.04 0.05 0.05 0.04 0.04 0.03 0.03 0.02 0.02 0.01 0.01 0.01 0.02 0.02 0.02 0.02 0.02 0.02 0.03 0.05 0.08 0.08 0.07 0.04 0.03 0.02 0.02
0.11 0.09 0.11 0.11 0.08 0.07 0.05 0.05 0.06 0.07 0.04 0.06 0.08 0.11 0.10 0.08 0.05 0.07 0.07 0.06 0.05 0.04 0.03 0.02 0.02 0.01 0.01 0.01 0.01 0.02 0.02 0.02 0.02 0.01 0.02 0.03 0.04 0.03 0.03 0.02 0.03 0.02 0.03
0.10 0.09 0.09 0.10 0.09 0.09 0.07 0.05 0.04 0.06 0.07 0.07 0.08 0.08 0.10 0.10 0.09 0.09 0.08 0.07 0.06 0.05 0.04 0.03 0.03 0.02 0.01 0.01 0.01 0.02 0.02 0.01 0.02 0.02 0.02 0.02 0.01 0.01 0.02 0.03 0.02 0.01 0.01
MSLP
1013.03 1012.67 1012.52 1012.59 1012.85 1013.22 1013.60 1013.91 1014.10 1014.16 1014.10 1014.01 1013.92 1013.91 1013.97 1014.11 1014.30 1014.48 1014.63 1014.73 1014.78 1014.82 1014.85 1014.93 1015.05 1015.22 1015.43 1015.65 1015.86 1016.02 1016.15 1016.24 1016.31 1016.38 1016.46 1016.56 1016.68 1016.82 1016.96 1017.09 1017.21 1017.33 1017.44
1012.95 1012.70 1012.61 1012.74 1013.02 1013.39 1013.75 1014.03 1014.19 1014.23 1014.20 1014.13 1014.10 1014.14 1014.27 1014.46 1014.68 1014.89 1015.06 1015.16 1015.22 1015.25 1015.29 1015.36 1015.48 1015.65 1015.85 1016.06 1016.25 1016.40 1016.52 1016.61 1016.68 1016.76 1016.85 1016.96 1017.09 1017.23 1017.36 1017.48 1017.59 1017.70 1017.79
1012.84 1012.67 1012.67 1012.84 1013.14 1013.50 1013.84 1014.11 1014.27 1014.32 1014.31 1014.29 1014.31 1014.40 1014.57 1014.79 1015.03 1015.25 1015.41 1015.51 1015.57 1015.59 1015.64 1015.71 1015.83 1015.99 1016.18 1016.37 1016.55 1016.70 1016.82 1016.91 1017.01 1017.11 1017.23 1017.36 1017.51 1017.65 1017.77 1017.89 1017.98 1018.07 1018.16
1012.71 1012.64 1012.70 1012.91 1013.22 1013.59 1013.92 1014.18 1014.34 1014.42 1014.44 1014.47 1014.53 1014.66 1014.85 1015.08 1015.31 1015.51 1015.66 1015.75 1015.79 1015.83 1015.87 1015.95 1016.08 1016.24 1016.42 1016.60 1016.78 1016.92 1017.05 1017.17 1017.30 1017.44 1017.59 1017.76 1017.92 1018.06 1018.19 1018.28 1018.36 1018.44 1018.52
1012.62 1012.62 1012.75 1013.00 1013.33 1013.69 1014.02 1014.27 1014.44 1014.53 1014.59 1014.65 1014.75 1014.90 1015.10 1015.31 1015.52 1015.69 1015.81 1015.88 1015.92 1015.97 1016.03 1016.13 1016.27 1016.44 1016.62 1016.80 1016.96 1017.11 1017.25 1017.40 1017.56 1017.74 1017.94 1018.13 1018.32 1018.47 1018.58 1018.67 1018.73 1018.80 1018.88
1012.61 1012.68 1012.87 1013.15 1013.49 1013.84 1014.16 1014.39 1014.56 1014.66 1014.74 1014.84 1014.96 1015.12 1015.31 1015.50 1015.67 1015.81 1015.90 1015.96 1016.01 1016.07 1016.17 1016.30 1016.47 1016.65 1016.83 1017.00 1017.15 1017.30 1017.45 1017.62 1017.81 1018.03 1018.26 1018.48 1018.68 1018.84 1018.95 1019.02 1019.07 1019.13 1019.21
1012.70 1012.85 1013.09 1013.39 1013.73 1014.07 1014.34 1014.55 1014.70 1014.81 1014.91 1015.02 1015.16 1015.33 1015.51 1015.68 1015.82 1015.92 1015.99 1016.05 1016.12 1016.21 1016.34 1016.51 1016.70 1016.90 1017.08 1017.24 1017.38 1017.52 1017.66 1017.84 1018.05 1018.29 1018.55 1018.80 1019.00 1019.16 1019.26 1019.32 1019.35 1019.41 1019.49
1012.90 1013.11 1013.40 1013.72 1014.05 1014.34 1014.58 1014.75 1014.87 1014.97 1015.07 1015.20 1015.36 1015.55 1015.73 1015.89 1016.01 1016.09 1016.16 1016.22 1016.30 1016.42 1016.59 1016.79 1017.00 1017.21 1017.39 1017.53 1017.65 1017.77 1017.90 1018.07 1018.29 1018.54 1018.81 1019.07 1019.28 1019.43 1019.52 1019.57 1019.59 1019.64 1019.72
1013.15 1013.43 1013.76 1014.10 1014.41 1014.66 1014.83 1014.95 1015.04 1015.13 1015.24 1015.40 1015.59 1015.79 1015.99 1016.15 1016.27 1016.35 1016.41 1016.47 1016.57 1016.71 1016.90 1017.13 1017.36 1017.57 1017.73 1017.86 1017.95 1018.04 1018.15 1018.30 1018.52 1018.77 1019.04 1019.30 1019.51 1019.66 1019.74 1019.78 1019.79 1019.83 1019.91
1013.39 1013.74 1014.12 1014.46 1014.74 1014.94 1015.06 1015.13 1015.18 1015.27 1015.40 1015.59 1015.82 1016.07 1016.29 1016.48 1016.60 1016.68 1016.74 1016.80 1016.90 1017.05 1017.26 1017.48 1017.72 1017.92 1018.07 1018.17 1018.24 1018.31 1018.40 1018.53 1018.73 1018.97 1019.24 1019.50 1019.71 1019.86 1019.94 1019.98 1019.99 1020.03 1020.10
1013.55 1013.97 1014.39 1014.73 1014.98 1015.14 1015.21 1015.24 1015.27 1015.36 1015.52 1015.76 1016.04 1016.34 1016.61 1016.83 1016.97 1017.06 1017.11 1017.16 1017.25 1017.39 1017.59 1017.80 1018.03 1018.22 1018.36 1018.45 1018.51 1018.55 1018.63 1018.75 1018.93 1019.17 1019.43 1019.68 1019.90 1020.05 1020.15 1020.19 1020.21 1020.24 1020.32
1013.57 1014.05 1014.50 1014.85 1015.08 1015.20 1015.23 1015.24 1015.28 1015.38 1015.59 1015.88 1016.23 1016.59 1016.91 1017.16 1017.32 1017.41 1017.45 1017.49 1017.56 1017.68 1017.85 1018.05 1018.26 1018.44 1018.58 1018.67 1018.72 1018.78 1018.85 1018.97 1019.14 1019.36 1019.62 1019.87 1020.09 1020.25 1020.36 1020.42 1020.46 1020.50 1020.57
1013.42 1013.95 1014.42 1014.77 1014.99 1015.10 1015.12 1015.13 1015.18 1015.33 1015.58 1015.93 1016.34 1016.76 1017.12 1017.41 1017.59 1017.68 1017.72 1017.74 1017.78 1017.87 1018.02 1018.20 1018.39 1018.58 1018.72 1018.83 1018.91 1018.97 1019.06 1019.18 1019.35 1019.57 1019.81 1020.05 1020.27 1020.44 1020.57 1020.66 1020.72 1020.78 1020.86
1013.11 1013.67 1014.15 1014.51 1014.73 1014.84 1014.88 1014.92 1015.01 1015.20 1015.51 1015.91 1016.37 1016.83 1017.22 1017.53 1017.73 1017.83 1017.86 1017.87 1017.90 1017.97 1018.09 1018.27 1018.46 1018.65 1018.82 1018.96 1019.08 1019.18 1019.29 1019.42 1019.58 1019.78 1020.00 1020.22 1020.43 1020.61 1020.75 1020.87 1020.96 1021.05 1021.14
1012.69 1013.25 1013.73 1014.09 1014.33 1014.46 1014.54 1014.63 1014.78 1015.02 1015.37 1015.82 1016.30 1016.78 1017.19 1017.51 1017.72 1017.83 1017.87 1017.89 1017.92 1017.99 1018.11 1018.29 1018.49 1018.72 1018.92 1019.11 1019.27 1019.41 1019.55 1019.68 1019.84 1020.01 1020.19 1020.37 1020.55 1020.72 1020.87 1021.02 1021.14 1021.27 1021.38
1012.24 1012.77 1013.24 1013.59 1013.85 1014.03 1014.17 1014.32 1014.53 1014.83 1015.21 1015.67 1016.16 1016.62 1017.03 1017.35 1017.57 1017.70 1017.77 1017.81 1017.87 1017.97 1018.12 1018.32 1018.55 1018.81 1019.06 1019.30 1019.51 1019.69 1019.84 1019.98 1020.11 1020.24 1020.36 1020.49 1020.62 1020.76 1020.90 1021.05 1021.21 1021.38 1021.53
1011.82 1012.30 1012.73 1013.09 1013.37 1013.60 1013.81 1014.04 1014.32 1014.66 1015.06 1015.51 1015.96 1016.40 1016.77 1017.08 1017.30 1017.46 1017.58 1017.68 1017.80 1017.95 1018.15 1018.39 1018.66 1018.96 1019.26 1019.53 1019.78 1020.00 1020.17 1020.30 1020.40 1020.46 1020.52 1020.57 1020.63 1020.71 1020.83 1020.98 1021.16 1021.36 1021.55
1011.50 1011.91 1012.28 1012.63 1012.94 1013.23 1013.52 1013.83 1014.17 1014.54 1014.94 1015.35 1015.75 1016.13 1016.46 1016.74 1016.97 1017.17 1017.35 1017.53 1017.73 1017.96 1018.22 1018.51 1018.83 1019.16 1019.49 1019.80 1020.08 1020.32 1020.49 1020.61 1020.67 1020.68 1020.65 1020.62 1020.60 1020.61 1020.69 1020.82 1021.00 1021.22 1021.45
1011.28 1011.60 1011.92 1012.25 1012.59 1012.94 1013.31 1013.70 1014.09 1014.48 1014.86 1015.22 1015.56 1015.85 1016.12 1016.38 1016.62 1016.86 1017.11 1017.39 1017.68 1017.99 1018.32 1018.66 1019.02 1019.37 1019.72 1020.05 1020.35 1020.60 1020.78 1020.89 1020.92 1020.88 1020.78 1020.66 1020.56 1020.50 1020.51 1020.61 1020.78 1021.00 1021.24
1011.16 1011.39 1011.66 1011.96 1012.32 1012.73 1013.17 1013.62 1014.07 1014.47 1014.83 1015.13 1015.39 1015.60 1015.81 1016.03 1016.28 1016.56 1016.89 1017.25 1017.64 1018.03 1018.42 1018.80 1019.17 1019.54 1019.89 1020.22 1020.53 1020.79 1020.99 1021.10 1021.12 1021.04 1020.90 1020.72 1020.54 1020.41 1020.35 1020.40 1020.53 1020.74 1020.99
1011.09 1011.25 1011.45 1011.73 1012.11 1012.56 1013.06 1013.58 1014.06 1014.48 1014.81 1015.06 1015.24 1015.39 1015.53 1015.72 1015.97 1016.29 1016.69 1017.13 1017.59 1018.04 1018.48 1018.88 1019.25 1019.61 1019.95 1020.28 1020.59 1020.87 1021.09 1021.22 1021.25 1021.18 1021.02 1020.80 1020.57 1020.38 1020.25 1020.23 1020.31 1020.48 1020.71
1011.05 1011.14 1011.28 1011.54 1011.92 1012.40 1012.94 1013.51 1014.02 1014.46 1014.78 1014.98 1015.11 1015.20 1015.30 1015.46 1015.72 1016.07 1016.51 1017.00 1017.51 1018.01 1018.46 1018.86 1019.22 1019.54 1019.86 1020.18 1020.49 1020.79 1021.05 1021.23 1021.31 1021.27 1021.13 1020.91 1020.65 1020.41 1020.22 1020.12 1020.14 1020.25 1020.43
1011.00 1011.03 1011.14 1011.36 1011.72 1012.21 1012.78 1013.38 1013.92 1014.37 1014.69 1014.89 1014.98 1015.03 1015.11 1015.25 1015.51 1015.87 1016.34 1016.86 1017.39 1017.90 1018.34 1018.72 1019.04 1019.34 1019.62 1019.92 1020.24 1020.57 1020.87 1021.11 1021.27 1021.29 1021.20 1021.01 1020.75 1020.48 1020.24 1020.08 1020.01 1020.04 1020.16
1010.94 1010.94 1010.99 1011.18 1011.51 1011.98 1012.56 1013.16 1013.73 1014.21 1014.54 1014.74 1014.83 1014.88 1014.95 1015.09 1015.33 1015.70 1016.17 1016.69 1017.22 1017.71 1018.12 1018.47 1018.75 1019.01 1019.26 1019.54 1019.87 1020.23 1020.58 1020.90 1021.12 1021.23 1021.21 1021.07 1020.83 1020.55 1020.28 1020.05 1019.90 1019.85 1019.89
1010.90 1010.87 1010.89 1011.02 1011.30 1011.73 1012.28 1012.88 1013.46 1013.95 1014.31 1014.54 1014.66 1014.72 1014.80 1014.94 1015.18 1015.53 1015.99 1016.49 1016.99 1017.45 1017.83 1018.14 1018.38 1018.59 1018.82 1019.09 1019.42 1019.80 1020.20 1020.58 1020.88 1021.07 1021.12 1021.04 1020.84 1020.57 1020.27 1019.99 1019.77 1019.64 1019.59
1010.92 1010.87 1010.83 1010.90 1011.11 1011.48 1011.98 1012.55 1013.12 1013.63 1014.03 1014.29 1014.45 1014.55 1014.65 1014.79 1015.03 1015.37 1015.79 1016.25 1016.72 1017.13 1017.48 1017.75 1017.96 1018.16 1018.36 1018.63 1018.96 1019.35 1019.78 1020.19 1020.55 1020.80 1020.92 1020.89 1020.74 1020.48 1020.18 1019.87 1019.60 1019.39 1019.27
Thickness
5782 5784 5783 5782 5782 5781 5780 5780 5779 5779 5778 5777 5776 5775 5774 5772 5771 5769 5767 5766 5764 5763 5762 5761 5760 5758 5757 5756 5754 5753 5751 5750 5749 5748 5747 5745 5743 5742 5741 5740 5738 5737 5736
5788 5785 5784 5782 5781 5780 5779 5779 5778 5777 5776 5775 5774 5773 5772 5770 5769 5767 5766 5764 5763 5762 5760 5759 5758 5756 5755 5754 5752 5750 5749 5748 5747 5746 5744 5743 5741 5740 5739 5738 5737 5735 5734
5789 5786 5784 5782 5781 5779 5779 5778 5777 5776 5775 5773 5772 5771 5770 5769 5767 5766 5764 5763 5761 5760 5758 5757 5756 5754 5753 5751 5750 5748 5746 5745 5744 5743 5742 5740 5739 5738 5737 5736 5735 5733 5732
5788 5785 5783 5781 5780 5778 5777 5776 5776 5775 5773 5772 5771 5770 5769 5768 5766 5764 5763 5761 5760 5758 5757 5756 5754 5752 5751 5749 5747 5746 5744 5743 5742 5740 5739 5738 5737 5736 5735 5734 5733 5732 5730
5787 5785 5783 5780 5779 5778 5776 5775 5774 5773 5772 5770 5769 5769 5767 5766 5765 5763 5761 5760 5758 5757 5755 5754 5753 5751 5749 5747 5746 5744 5742 5741 5740 5738 5737 5736 5735 5734 5733 5732 5730 5729 5728
5785 5784 5782 5780 5778 5776 5775 5774 5773 5772 5770 5769 5768 5767 5766 5764 5763 5762 5760 5758 5757 5755 5753 5752 5751 5749 5747 5746 5744 5743 5741 5739 5737 5736 5735 5734 5733 5732 5731 5730 5728 5727 5726
5784 5782 5781 5779 5777 5775 5774 5773 5771 5770 5769 5768 5766 5765 5764 5763 5762 5760 5759 5757 5755 5753 5752 5750 5749 5748 5746 5744 5743 5742 5740 5738 5736 5734 5733 5732 5731 5730 5729 5728 5727 5725 5724
5784 5782 5780 5778 5776 5775 5773 5772 5770 5769 5768 5767 5765 5764 5763 5761 5760 5758 5757 5755 5754 5752 5750 5749 5748 5746 5745 5743 5742 5741 5739 5737 5734 5733 5731 5730 5729 5728 5727 5726 5725 5723 5722
5784 5781 5779 5777 5776 5774 5773 5771 5770 5768 5767 5765 5764 5763 5761 5760 5758 5757 5756 5754 5753 5751 5749 5748 5747 5745 5744 5742 5741 5740 5738 5736 5734 5732 5730 5729 5728 5727 5725 5724 5723 5722 5720
5782 5780 5778 5777 5775 5773 5772 5770 5769 5767 5766 5764 5763 5762 5760 5759 5757 5756 5754 5753 5752 5750 5748 5747 5746 5744 5743 5741 5740 5738 5737 5735 5733 5731 5729 5727 5726 5725 5724 5722 5721 5720 5719
5778 5778 5777 5775 5774 5772 5770 5769 5768 5766 5764 5763 5762 5761 5759 5757 5756 5754 5753 5752 5750 5749 5747 5746 5744 5743 5742 5741 5739 5738 5736 5733 5732 5730 5728 5727 5725 5724 5722 5721 5720 5719 5718
5775 5776 5776 5775 5773 5771 5770 5768 5766 5764 5763 5761 5760 5759 5758 5756 5754 5753 5752 5751 5749 5748 5746 5745 5744 5743 5741 5740 5739 5737 5735 5733 5731 5729 5727 5726 5724 5723 5721 5720 5719 5717 5716
5779 5777 5776 5775 5773 5771 5769 5766 5764 5763 5761 5760 5759 5758 5756 5754 5753 5752 5751 5750 5748 5747 5746 5745 5744 5743 5741 5740 5739 5737 5734 5732 5730 5728 5727 5725 5724 5722 5720 5719 5718 5716 5715
5779 5778 5778 5776 5774 5771 5769 5766 5764 5762 5760 5759 5758 5757 5756 5754 5752 5751 5750 5749 5747 5746 5745 5744 5744 5743 5741 5740 5739 5737 5735 5732 5730 5728 5726 5725 5723 5722 5720 5718 5717 5716 5714
5782 5781 5780 5778 5775 5772 5769 5766 5764 5762 5760 5759 5758 5756 5755 5754 5753 5751 5750 5748 5747 5745 5745 5744 5743 5743 5742 5740 5739 5737 5735 5733 5730 5728 5726 5725 5723 5721 5720 5718 5717 5715 5714
5787 5784 5782 5779 5776 5772 5769 5766 5765 5762 5760 5759 5757 5756 5755 5755 5753 5751 5750 5748 5747 5746 5745 5744 5743 5742 5741 5740 5739 5737 5735 5733 5730 5728 5727 5725 5723 5721 5720 5718 5717 5715 5714
5791 5788 5783 5779 5776 5773 5770 5768 5766 5763 5760 5758 5757 5756 5755 5755 5754 5752 5750 5749 5748 5746 5745 5744 5743 5742 5741 5740 5739 5737 5735 5733 5731 5729 5727 5725 5723 5722 5720 5718 5717 5716 5714
5792 5788 5784 5782 5776 5774 5771 5768 5766 5764 5761 5758 5757 5756 5756 5755 5754 5752 5751 5749 5748 5747 5745 5744 5742 5740 5739 5738 5737 5736 5735 5733 5731 5730 5728 5726 5724 5723 5721 5719 5718 5716 5715
5794 5788 5783 5781 5776 5774 5772 5769 5767 5763 5760 5758 5757 5756 5755 5755 5754 5753 5751 5750 5749 5747 5745 5744 5742 5740 5737 5737 5736 5735 5734 5733 5732 5730 5729 5727 5726 5724 5723 5721 5719 5717 5716
5794 5789 5785 5780 5777 5774 5771 5768 5765 5762 5759 5758 5756 5755 5755 5755 5754 5752 5751 5750 5749 5746 5744 5743 5741 5740 5738 5737 5736 5734 5733 5733 5732 5731 5731 5729 5727 5726 5724 5722 5721 5719 5717
5791 5787 5784 5779 5776 5773 5769 5765 5761 5758 5757 5756 5756 5756 5755 5755 5753 5752 5751 5749 5748 5746 5744 5743 5740 5738 5736 5736 5731 5728 5730 5732 5732 5732 5732 5731 5730 5728 5726 5724 5722 5721 5719
5789 5785 5783 5780 5777 5773 5770 5766 5763 5760 5757 5756 5756 5756 5755 5754 5753 5751 5750 5749 5747 5745 5743 5742 5740 5736 5735 5735 5729 5722 5719 5722 5729 5734 5733 5732 5732 5730 5728 5726 5725 5723 5722
5789 5786 5783 5780 5777 5774 5770 5765 5762 5758 5755 5753 5752 5753 5754 5754 5753 5751 5750 5749 5747 5745 5742 5741 5740 5737 5732 5733 5733 5726 5717 5714 5721 5728 5732 5733 5733 5732 5730 5729 5727 5726 5724
5790 5788 5783 5779 5776 5773 5770 5765 5760 5755 5752 5753 5753 5753 5753 5753 5752 5751 5750 5748 5747 5745 5743 5742 5741 5738 5735 5730 5731 5732 5730 5728 5720 5719 5726 5731 5733 5733 5732 5732 5730 5728 5726
5790 5786 5782 5777 5774 5772 5769 5765 5760 5756 5755 5754 5753 5752 5751 5752 5751 5751 5749 5748 5746 5745 5743 5741 5740 5738 5736 5733 5730 5730 5729 5728 5727 5721 5718 5724 5729 5733 5734 5733 5733 5731 5729
5787 5784 5780 5775 5771 5770 5767 5764 5760 5756 5754 5752 5751 5749 5749 5749 5750 5750 5749 5747 5746 5745 5743 5741 5739 5738 5736 5734 5733 5731 5729 5726 5724 5722 5719 5719 5722 5729 5733 5733 5733 5732 5730